Skip Page Navigation
NASA JPL Caltech
NASA Logo - Jet Propulsion Laboratory + View the NASA Portal
+ Center for Near-Earth Object Studies
JPL Home Earth Solar System Stars & Galaxies Technology
JPL Solar System Dynamics
BODIES ORBITS EPHEMERIDES TOOLS PHYSICAL DATA DISCOVERY FAQ SITE MAP
JPL Small-Body Database Browser
Search: [ help ]  
79232 (1994 PH25)
Classification: Main-belt Asteroid          SPK-ID: 2079232
Ephemeris | Orbit Diagram | Orbital Elements | Mission Design | Physical Parameters | Discovery Circumstances ]

[ show orbit diagram ]
Orbital Elements at Epoch 2459000.5 (2020-May-31.0) TDB
Reference: JPL 16 (heliocentric ecliptic J2000)
 Element Value Uncertainty (1-sigma)   Units 
e .1607521824139322 5.0331e-08  
a 2.395499655678096 1.1083e-08 au
q 2.010417858056019 1.2139e-07 au
i 6.486124554346375 5.1607e-06 deg
node 141.1154199857885 4.2243e-05 deg
peri 205.1778317637946 4.4258e-05 deg
M 331.9360020835133 1.4469e-05 deg
tp 2459106.069784420288
(2020-Sep-13.56978442)
5.4639e-05 TDB
period 1354.23051642178
3.71
9.398e-06
2.573e-08
d
yr
n .2658336196345739 1.8448e-09 deg/d
Q 2.780581453300173 1.2864e-08 au
  Orbit Determination Parameters
   # obs. used (total)      586  
   data-arc span      14986 days (41.03 yr)  
   first obs. used      1979-07-24  
   last obs. used      2020-08-03  
   planetary ephem.      DE431  
   SB-pert. ephem.      SB431-N16  
   condition code      0  
   norm. resid. RMS      .58072  
   source      ORB  
   producer      Otto Matic  
   solution date      2020-Aug-25 07:34:34  

Additional Information
 Earth MOID = 1.00497 au 
 Jupiter MOID = 2.62402 au 
 T_jup = 3.503 
[ show covariance matrix ]

Ephemeris | Orbit Diagram | Orbital Elements | Mission Design | Physical Parameters | Discovery Circumstances ]

Physical Parameter Table
Parameter Symbol Value Units Sigma Reference Notes
absolute magnitude H 15.8   n/a MPO432341  

79232 (1994 PH25)          Discovered 1994-Aug-12 by Elst, E. W. at La Silla
Reference: 20040504/Numbers.arcLast Updated: 2004-07-16

Alternate Designations
 1994 PH25 = 1979 OU = 2000 DF37 
Ephemeris | Orbit Diagram | Orbital Elements | Mission Design | Physical Parameters | Discovery Circumstances ]
ABOUT SSD CREDITS/AWARDS PRIVACY/COPYRIGHT GLOSSARY LINKS
FirstGov 2020-Oct-21 20:41 UT
(server date/time)  
NASA Home Page
Site Manager:   Ryan S. Park
Webmaster  Alan B. Chamberlin